User: anonymous   Login
Location: Copeville
(33.0796°N, 96.4155°W)
Time: 21:13:15
(UTC+00:00)
Language:

SKYMED 2 - Orbit

View from above orbital plane
View from above orbital plane
View from above satellite
View from above satellite

Ground track
Ground track

The orbit data is extracted from the following two-line orbital elements,

1 32376U 07059A   22148.51996539 -.00003216  00000-0 -39788-3 0  9998
2 32376  97.8884 332.4706 0001289  92.9997 267.1412 14.82134436782755
Epoch (UTC): 28 May 2022 12:28:45
Eccentricity: 0.0001289
inclination: 97.8884°
perigee height: 621 km
apogee height: 623 km
right ascension of ascending node: 332.4706°
argument of perigee: 92.9997°
revolutions per day: 14.82134436
mean anomaly at epoch: 267.1412°
orbit number at epoch: 78275

The dashed part of the orbit path shows where the satellite is in the earth's shadow,  

DLR